Carver, MA

9:05 AM EDT on September 27, 2016 (GMT -0400)
Plymouth Municipal

Weather History for KPYM - September, 2014

Change the Weather History Date:

Tuesday, September 9, 2014

  Actual Average Record
Temperature  
Mean Temperature 66 °F -  
Max Temperature 72 °F 73 °F 91 °F (2016)
Min Temperature 62 °F 52 °F 39 °F (1952)
Cooling Degree Days 2    
Growing Degree Days 16 (Base 50)    
Moisture  
Dew Point 55 °F    
Average Humidity 70    
Maximum Humidity 84    
Minimum Humidity 56    
Precipitation  
Precipitation 0.00 in - - ()
Sea Level Pressure  
Sea Level Pressure 30.26 in    
Wind  
Wind Speed 8 mph (ENE)    
Max Wind Speed 15 mph    
Max Gust Speed 21 mph    
Visibility 10 miles    
Events      
Averages and records for this station are not official NWS values.
T = Trace of Precipitation, MM = Missing Value Source: NWS Daily Summary

Daily Weather History Graph

Daily Weather History Graph

Search for Another Location

Airport or City:

Trip Planner

Search our weather history database for the weather conditions in past years. The results will help you decide how hot, cold, wet, or windy it might be!

Date:

Astronomy

Sep. 09, 2014 Rise Set
Actual Time 6:16 AM EDT 7:02 PM EDT
Civil Twilight 5:48 AM EDT 7:31 PM EDT
Nautical Twilight 5:15 AM EDT 8:04 PM EDT
Astronomical Twilight 4:40 AM EDT 8:39 PM EDT
Moon 7:18 PM EDT (9/9) 6:50 AM EDT (9/9)
Length of Visible Light 13h 42m
Length of Day
12h 46m
Waxing Gibbous, 99% of the Moon is Illuminated
Sep 9
Waxing Gibbous
Sep 15
Last Quarter
Sep 24
New
Oct 1
First Quarter
Oct 8
Full

Hourly Weather History & Observations

Time (EDT) Temp. Dew Point Humidity Pressure Visibility Wind Dir Wind Speed Gust Speed Precip Events Conditions
12:52 AM 62.1 °F 51.1 °F 67% 30.35 in 10.0 mi East 4.6 mph - N/A   Clear
1:52 AM 63.0 °F 51.1 °F 65% 30.34 in 10.0 mi East 5.8 mph - N/A   Clear
2:52 AM 63.0 °F 51.1 °F 65% 30.33 in 10.0 mi East 5.8 mph - N/A   Clear
3:52 AM 63.0 °F 51.1 °F 65% 30.33 in 10.0 mi ENE 4.6 mph - N/A   Clear
5:52 AM 64.0 °F 51.1 °F 63% 30.33 in 10.0 mi ENE 5.8 mph - N/A   Overcast
6:52 AM 64.0 °F 51.1 °F 63% 30.33 in 10.0 mi ENE 6.9 mph - N/A   Mostly Cloudy
7:52 AM 66.0 °F 50.0 °F 56% 30.33 in 10.0 mi East 11.5 mph - N/A   Clear
8:52 AM 66.9 °F 51.1 °F 57% 30.33 in 10.0 mi East 11.5 mph - N/A   Mostly Cloudy
9:52 AM 66.9 °F 51.1 °F 57% 30.33 in 10.0 mi East 11.5 mph - N/A   Mostly Cloudy
11:52 AM 70.0 °F 54.0 °F 57% 30.32 in 10.0 mi East 13.8 mph 18.4 mph N/A   Mostly Cloudy
12:39 PM 70.0 °F 54.0 °F 57% 30.31 in 10.0 mi ENE 10.4 mph 20.7 mph N/A   Mostly Cloudy
12:52 PM 71.1 °F 55.0 °F 57% 30.31 in 10.0 mi ENE 12.7 mph 19.6 mph N/A   Overcast
1:52 PM 69.1 °F 57.0 °F 65% 30.29 in 10.0 mi NE 15.0 mph - N/A   Overcast
2:52 PM 68.0 °F 55.9 °F 65% 30.27 in 10.0 mi ENE 10.4 mph 20.7 mph N/A   Overcast
3:52 PM 68.0 °F 57.0 °F 68% 30.25 in 10.0 mi NE 11.5 mph - N/A   Mostly Cloudy
3:59 PM 66.9 °F 57.0 °F 70% 30.25 in 10.0 mi NE 10.4 mph 20.7 mph N/A   Mostly Cloudy
5:52 PM 64.9 °F 57.0 °F 75% 30.22 in 10.0 mi NNE 10.4 mph - N/A   Mostly Cloudy
6:10 PM 64.9 °F 57.9 °F 78% 30.22 in 10.0 mi NNE 9.2 mph - N/A   Mostly Cloudy
6:52 PM 64.0 °F 57.9 °F 80% 30.21 in 10.0 mi NE 6.9 mph - N/A   Mostly Cloudy
7:25 PM 64.0 °F 57.9 °F 80% 30.21 in 10.0 mi NE 6.9 mph - N/A   Mostly Cloudy
7:52 PM 64.0 °F 57.9 °F 80% 30.21 in 10.0 mi NE 5.8 mph - N/A   Overcast
8:24 PM 64.9 °F 57.9 °F 78% 30.22 in 10.0 mi ENE 9.2 mph - N/A   Scattered Clouds
8:52 PM 64.0 °F 57.9 °F 80% 30.22 in 10.0 mi NE 5.8 mph - N/A   Partly Cloudy
9:52 PM 64.0 °F 57.9 °F 80% 30.21 in 10.0 mi NE 8.1 mph - N/A   Scattered Clouds
10:23 PM 64.9 °F 57.9 °F 78% 30.21 in 10.0 mi NE 9.2 mph - N/A   Overcast
10:31 PM 66.9 °F 57.9 °F 73% 30.21 in 10.0 mi ENE 5.8 mph - N/A   Overcast
10:52 PM 64.0 °F 57.9 °F 80% 30.20 in 10.0 mi NE 6.9 mph - N/A   Overcast
11:19 PM 64.0 °F 57.9 °F 80% 30.19 in 10.0 mi NE 6.9 mph - N/A   Overcast
11:40 PM 64.0 °F 57.9 °F 80% 30.18 in 10.0 mi NE 8.1 mph 16.1 mph N/A   Overcast
11:52 PM 64.0 °F 59.0 °F 84% 30.18 in 10.0 mi NE 6.9 mph - N/A   Overcast